Weather History for Monett, MO

Change the Weather History Date:

Friday, January 10, 2014

  Actual Average (KJLN) Record (KJLN)
Temperature  
Mean Temperature 43 °F 34 °F  
Max Temperature 51 °F 44 °F 69 °F (1990)
Min Temperature 35 °F 25 °F -10 °F (1982)
Degree Days  
Heating Degree Days 22 30  
Month to date heating degree days 300  
Since 1 July heating degree days 1917  
Cooling Degree Days 0 0  
Month to date cooling degree days 0  
Year to date cooling degree days 0  
Moisture  
Dew Point 42 °F    
Average Humidity 95    
Maximum Humidity 100    
Minimum Humidity 76    
Precipitation  
Precipitation 0.80 in 0.07 in 1.04 in (1949)
Month to date precipitation 0.70  
Year to date precipitation 0.70  
Sea Level Pressure  
Sea Level Pressure 29.73 in    
Wind  
Wind Speed 11 mph (South)    
Max Wind Speed 22 mph    
Max Gust Speed 32 mph    
Visibility 7 miles    
Events Fog , Rain , Thunderstorm    
T = Trace of Precipitation, MM = Missing Value Source: NWS Daily Summary

Daily Weather History Graph

Daily Weather History Graph

Search for Another Location

Airport:

Trip Planner

Search our weather history database for the weather conditions in past years. The results will help you decide how hot, cold, wet, or windy it might be!

Date:

Astronomy

Jan. 10, 2014 Rise Set
Actual Time 7:29 AM CST 5:18 PM CST
Civil Twilight 7:00 AM CST 5:46 PM CST
Nautical Twilight 6:28 AM CST 6:18 PM CST
Astronomical Twilight 5:57 AM CST 6:50 PM CST
Moon 1:20 PM CST (1/10) 2:39 AM CST (1/10)
Length of Visible Light 10h 46m
Length of Day
9h 49m
Waxing Gibbous, 75% of the Moon is Illuminated
Jan 10
Waxing Gibbous
Jan 15
Full
Jan 23
Last Quarter
Jan 30
New
Feb 6
First Quarter

Hourly Weather History & Observations

Time (CST) Temp. Windchill Dew Point Humidity Pressure Visibility Wind Dir Wind Speed Gust Speed Precip Events Conditions
12:15 AM 35.6 °F 29.2 °F 33.8 °F 93% 30.00 in 10.0 mi SE 8.1 mph - N/A   Overcast
12:35 AM 35.6 °F 28.6 °F 35.6 °F 100% 29.99 in 10.0 mi SE 9.2 mph - N/A   Overcast
12:55 AM 35.6 °F 28.6 °F 33.8 °F 93% 29.98 in 10.0 mi SSE 9.2 mph - N/A   Overcast
1:15 AM 35.6 °F 29.9 °F 35.6 °F 100% 29.96 in 10.0 mi SSE 6.9 mph - N/A   Overcast
1:35 AM 35.6 °F 28.6 °F 35.6 °F 100% 29.95 in 7.0 mi SE 9.2 mph - N/A   Overcast
1:55 AM 35.6 °F 28.0 °F 35.6 °F 100% 29.95 in 7.0 mi SE 10.4 mph - N/A   Overcast
2:15 AM 35.6 °F 28.6 °F 35.6 °F 100% 29.95 in 2.0 mi SE 9.2 mph - N/A   Overcast
2:35 AM 35.6 °F 29.2 °F 35.6 °F 100% 29.95 in 3.0 mi SSE 8.1 mph - N/A   Overcast
2:55 AM 37.4 °F 32.1 °F 37.4 °F 100% 29.93 in 5.0 mi SSE 6.9 mph - N/A   Overcast
3:15 AM 37.4 °F 31.4 °F 37.4 °F 100% 29.93 in 3.0 mi SSE 8.1 mph - N/A   Overcast
3:35 AM 37.4 °F 30.8 °F 37.4 °F 100% 29.91 in 0.8 mi SE 9.2 mph - N/A   Overcast
3:55 AM 37.4 °F 31.4 °F 37.4 °F 100% 29.90 in 0.8 mi SE 8.1 mph - N/A   Overcast
4:15 AM 37.4 °F 30.8 °F 37.4 °F 100% 29.89 in 0.8 mi SSE 9.2 mph - N/A   Overcast
4:35 AM 37.4 °F 29.3 °F 37.4 °F 100% 29.87 in 0.5 mi SSE 12.7 mph - N/A Fog Fog
4:55 AM 37.4 °F 29.3 °F 37.4 °F 100% 29.86 in 0.5 mi SE 12.7 mph - N/A Fog Fog
5:15 AM 39.2 °F 31.2 °F 39.2 °F 100% 29.85 in 0.5 mi SSE 13.8 mph - N/A Fog Fog
5:35 AM 39.2 °F 32.5 °F 39.2 °F 100% 29.84 in 0.5 mi SE 10.4 mph - N/A Fog Fog
5:55 AM 39.2 °F 32.0 °F 39.2 °F 100% 29.84 in 0.5 mi SE 11.5 mph - N/A Fog Fog
6:15 AM 41.0 °F 33.5 °F 41.0 °F 100% 29.83 in 0.5 mi SE 13.8 mph - N/A Fog Fog
6:35 AM 41.0 °F 34.3 °F 41.0 °F 100% 29.82 in 0.5 mi SE 11.5 mph 19.6 mph N/A Fog Fog
6:55 AM 41.0 °F 35.2 °F 41.0 °F 100% 29.82 in 0.5 mi SE 9.2 mph - N/A Fog Fog
7:15 AM 42.8 °F 36.2 °F 42.8 °F 100% 29.81 in 0.8 mi SSE 12.7 mph - N/A   Overcast
7:35 AM 42.8 °F 35.8 °F 42.8 °F 100% 29.80 in 3.0 mi SSE 13.8 mph 19.6 mph N/A   Overcast
7:55 AM 42.8 °F 35.8 °F 42.8 °F 100% 29.79 in 5.0 mi SSE 13.8 mph - N/A   Overcast
8:15 AM 42.8 °F 35.8 °F 42.8 °F 100% 29.78 in 3.0 mi SSE 13.8 mph - N/A   Overcast
8:35 AM 42.8 °F 36.2 °F 42.8 °F 100% 29.77 in 1.5 mi SSE 12.7 mph 17.3 mph N/A Rain Rain
8:55 AM 42.8 °F 35.8 °F 42.8 °F 100% 29.77 in 1.5 mi SSE 13.8 mph - N/A   Overcast
9:15 AM 44.6 °F 38.4 °F 44.6 °F 100% 29.76 in 1.2 mi SE 12.7 mph - N/A Thunderstorm Overcast
9:35 AM 44.6 °F 37.8 °F 44.6 °F 100% 29.76 in 2.0 mi SSE 15.0 mph 20.7 mph N/A Rain , Thunderstorm Rain
9:55 AM 46.4 °F 39.0 °F 46.4 °F 100% 29.78 in 4.0 mi South 19.6 mph 24.2 mph 0.05 in Rain , Thunderstorm Thunderstorms and Rain
10:15 AM 46.4 °F 40.1 °F 46.4 °F 100% 29.77 in 5.0 mi South 15.0 mph - 0.06 in Rain Rain
10:35 AM 48.2 °F - 48.2 °F 100% 29.76 in 7.0 mi South 16.1 mph 23.0 mph 0.11 in Rain Rain
10:55 AM 48.2 °F - 48.2 °F 100% 29.76 in 5.0 mi South 15.0 mph 23.0 mph 0.17 in Rain Rain
11:15 AM 50.0 °F - 48.2 °F 94% 29.74 in 7.0 mi South 15.0 mph - 0.03 in Rain Rain
11:35 AM 50.0 °F - 48.2 °F 94% 29.70 in 7.0 mi SSE 15.0 mph 23.0 mph 0.05 in Rain Light Rain
11:55 AM 50.0 °F - 48.2 °F 94% 29.70 in 10.0 mi South 11.5 mph 19.6 mph 0.05 in Rain Rain
12:35 PM 50.0 °F - 50.0 °F 100% 29.66 in 10.0 mi South 19.6 mph 27.6 mph 0.04 in Rain Light Rain
12:55 PM 50.0 °F - 50.0 °F 100% 29.62 in 10.0 mi SSE 17.3 mph 24.2 mph 0.04 in   Overcast
1:15 PM 51.8 °F - 50.0 °F 94% 29.61 in 10.0 mi South 19.6 mph 25.3 mph N/A   Mostly Cloudy
1:35 PM 51.8 °F - 50.0 °F 94% 29.59 in 10.0 mi SSE 16.1 mph 23.0 mph N/A   Mostly Cloudy
1:55 PM 51.8 °F - 50.0 °F 94% 29.60 in 10.0 mi South 12.7 mph 19.6 mph N/A   Overcast
2:15 PM 51.8 °F - 50.0 °F 94% 29.60 in 10.0 mi South 16.1 mph 21.9 mph N/A   Overcast
2:35 PM 51.8 °F - 48.2 °F 88% 29.60 in 10.0 mi South 15.0 mph - N/A   Overcast
2:55 PM 51.8 °F - 50.0 °F 94% 29.59 in 10.0 mi South 12.7 mph 20.7 mph N/A   Overcast
3:15 PM 51.8 °F - 50.0 °F 94% 29.58 in 10.0 mi South 11.5 mph 18.4 mph N/A   Mostly Cloudy
3:35 PM 51.8 °F - 50.0 °F 94% 29.59 in 10.0 mi South 12.7 mph - N/A   Scattered Clouds
3:55 PM 51.8 °F - 48.2 °F 88% 29.59 in 10.0 mi South 11.5 mph - N/A   Scattered Clouds
4:15 PM 51.8 °F - 48.2 °F 88% 29.58 in 10.0 mi South 13.8 mph - N/A   Mostly Cloudy
4:35 PM 51.8 °F - 48.2 °F 88% 29.57 in 10.0 mi South 10.4 mph - N/A   Overcast
4:55 PM 51.8 °F - 50.0 °F 94% 29.56 in 10.0 mi South 9.2 mph - N/A Rain Light Rain
5:15 PM 50.0 °F - 50.0 °F 100% 29.56 in 1.8 mi SSW 9.2 mph - 0.28 in Rain Heavy Rain
5:35 PM 50.0 °F - 50.0 °F 100% 29.56 in 5.0 mi SW 10.4 mph - 0.48 in Rain Light Rain
5:55 PM 50.0 °F - 50.0 °F 100% 29.57 in 10.0 mi WSW 8.1 mph - 0.49 in   Overcast
6:15 PM 50.0 °F - 50.0 °F 100% 29.58 in 10.0 mi WSW 9.2 mph - N/A   Overcast
6:35 PM 50.0 °F - 48.2 °F 94% 29.59 in 10.0 mi WSW 11.5 mph - N/A   Overcast
6:55 PM 50.0 °F - 46.4 °F 87% 29.59 in 10.0 mi WSW 13.8 mph 19.6 mph N/A   Overcast
7:15 PM 50.0 °F - 46.4 °F 87% 29.61 in 10.0 mi West 15.0 mph 21.9 mph N/A   Overcast
7:35 PM 46.4 °F 38.5 °F 41.0 °F 81% 29.63 in 10.0 mi West 21.9 mph 32.2 mph N/A   Mostly Cloudy
7:55 PM 44.6 °F 37.2 °F 37.4 °F 76% 29.65 in 10.0 mi West 17.3 mph 21.9 mph N/A   Clear
8:15 PM 42.8 °F 36.2 °F 35.6 °F 76% 29.66 in 10.0 mi West 12.7 mph 23.0 mph N/A   Clear
8:35 PM 41.0 °F 34.7 °F 35.6 °F 81% 29.66 in 10.0 mi West 10.4 mph 17.3 mph N/A   Clear
8:55 PM 39.2 °F 33.6 °F 35.6 °F 87% 29.67 in 10.0 mi WSW 8.1 mph - N/A   Clear
9:15 PM 37.4 °F 32.8 °F 35.6 °F 93% 29.67 in 10.0 mi WSW 5.8 mph - N/A   Clear
9:35 PM 37.4 °F 32.8 °F 33.8 °F 87% 29.67 in 10.0 mi SW 5.8 mph - N/A   Clear
9:55 PM 37.4 °F 34.9 °F 33.8 °F 87% 29.67 in 10.0 mi SW 3.5 mph - N/A   Clear
10:15 PM 35.6 °F 30.7 °F 33.8 °F 93% 29.67 in 10.0 mi SSW 5.8 mph - N/A   Clear
10:35 PM 35.6 °F 32.8 °F 33.8 °F 93% 29.67 in 10.0 mi SW 3.5 mph - N/A   Clear
10:55 PM 35.6 °F 31.7 °F 33.8 °F 93% 29.66 in 10.0 mi SSW 4.6 mph - N/A   Clear
11:15 PM 35.6 °F 32.8 °F 32.0 °F 87% 29.66 in 10.0 mi SSW 3.5 mph - N/A   Clear
11:35 PM 35.6 °F 32.8 °F 32.0 °F 87% 29.66 in 10.0 mi SSW 3.5 mph - N/A   Clear
11:55 PM 35.6 °F 32.8 °F 32.0 °F 87% 29.66 in 10.0 mi SW 3.5 mph - N/A   Clear